sat.trackr.live / text

‹ back to catalog

STARLINK-31178

NORAD 59025 · 2024-038C

PAYLOAD ACTIVE UNKNOWN

§ Identity

Operator
Country
US
Launch date
2024-02-25
Launch site
AFETR
Launch vehicle
Mass (kg)
RCS (m²)

Purposes: comms

External: N2YO · Heavens-Above · Gunter

§ Orbital elements

Epoch: 2026-09-20T00:02:01.595040Z

Period
94.27 min
Inclination
43.0035°
Eccentricity
0.0000925
Mean motion
15.27575691 rev/d
Perigee alt
482.4 km
Apogee alt
483.7 km
Semi-major
6,861.2 km
B*
9.2092e-6
RAAN
9.8205°
Arg perigee
269.9045°
Mean anomaly
90.1701°
Rev number
14,436

§ Raw data

STARLINK-311781 59025U 24038C   26263.00140735 -.00000009  00000+0  92092-5 0  99932 59025  43.0035   9.8205 0000925 269.9045  90.1701 15.27575691144367

JSON: /api/v1/satellites/59025 · /tle

For live sub-satellite position, see the globe view (requires WebGL).

§ Visibility from observer

Set your observer location to see the next 7 days of passes ≥ 10°. The values pass through the URL so the page stays shareable.

No JS? Fill the form by hand. The geolocation button needs JavaScript.